Terug naar catalogus

GLOBALSTAR M056

ActiefCommunicatieLEO
NORAD 25945·PAYLOAD·🇺🇸 United States

Gelanceerd Oct 18, 1999 vanaf Baikonur Cosmodrome

Loading…

Volgende Passages (komende 24 uur)

TLE

VersSource: Space-Track

Epoch: Sep 14, 2026, 09:27 UTC

1 25945U 99058C   26257.39401480 -.00000038  00000-0  57806-3 0  9998
2 25945  51.9971  48.6904 0001142  30.2687 344.5374 12.04789425217376

Volg GLOBALSTAR M056 in realtime met AllMySat

Download on the App Store